Location: Bottom School (historical)
(37.9078°N, 89.3593°W)
Time: 20:10:42
(UTC+00:00)

SL-4 R/B - Pass Details

Date: 02 July 2022
Orbit: 425 x 653 km, 51.6° (Epoch: 16 August)

Event Time Altitude Azimuth Distance (km) Brightness Sun altitude
Exits shadow 06:55:20 28° 16° (NNE) 907 3.7 -27.8°
Drops below altitude 10° 06:57:31 10° 39° (NE) 1,664 5.3 -27.7°
Sets 06:59:52 0° 46° (NE) 2,589 6.3 -27.5°
